Location: Salillas
(41.9950°N, 0.2228°W)
Time: 01:22:20
(UTC+00:00)

MetOp-A - Pass Details

Date: 29 March 2020
Orbit: 820 x 821 km, 98.5° (Epoch: 05 June)

Event Time Altitude Azimuth Distance (km) Brightness Sun altitude
Exits shadow 19:42:25 19° 137° (SE) 1,872 5.5 -15.1°
Maximum altitude 19:46:03 49° 70° (ENE) 1,056 4.4 -15.7°
Drops below altitude 10° 19:51:12 10° 358° (N) 2,426 6.9 -16.6°
Sets 19:53:37 0° 353° (N) 3,363 7.7 -17.0°
